Time,TemperatureF,DewpointF,PressureIn,WindDirection,WindDirectionDegrees,WindSpeedMPH,WindSpeedGustMPH,Humidity,HourlyPrecipIn,Conditions,Clouds,dailyrainin,SoftwareType,DateUTC
2013-09-16 13:22:00,86.2,67.1,29.62,North,360,2.0,2.0,53,0.00,,,0.00,VWS V14.01,2013-09-16 03:22:00,
2013-09-16 13:23:00,86.2,67.1,29.62,NE,45,2.7,2.7,53,0.00,,,0.00,VWS V14.01,2013-09-16 03:23:00,
2013-09-16 13:24:00,86.2,67.1,29.62,ENE,68,2.7,2.7,53,0.00,,,0.00,VWS V14.01,2013-09-16 03:24:00,
2013-09-16 13:25:00,86.2,67.1,29.62,NE,45,3.4,3.4,53,0.00,,,0.00,VWS V14.01,2013-09-16 03:25:00,
2013-09-16 13:30:00,86.0,66.9,29.62,North,360,2.9,2.9,53,0.00,,,0.00,VWS V14.01,2013-09-16 03:30:00,
2013-09-16 13:35:00,86.2,67.1,29.62,NNE,22,3.6,3.6,53,0.00,,,0.00,VWS V14.01,2013-09-16 03:35:00,
2013-09-16 13:40:00,85.8,67.3,29.62,NNE,22,2.9,2.9,54,0.00,,,0.00,VWS V14.01,2013-09-16 03:40:00,
2013-09-16 13:45:00,86.0,67.4,29.62,East,90,6.0,6.0,54,0.00,,,0.00,VWS V14.01,2013-09-16 03:45:00,
2013-09-16 13:50:00,86.0,67.4,29.62,NNE,22,3.8,3.8,54,0.00,,,0.00,VWS V14.01,2013-09-16 03:50:00,
2013-09-16 13:55:00,86.2,67.1,29.62,NNE,22,2.9,2.9,53,0.00,,,0.00,VWS V14.01,2013-09-16 03:55:00,
2013-09-16 14:00:00,85.8,66.2,29.62,North,360,7.2,7.2,52,0.00,,,0.00,VWS V14.01,2013-09-16 04:00:00,
2013-09-16 14:01:00,85.6,66.6,29.62,North,360,7.2,7.2,53,0.00,,,0.00,VWS V14.01,2013-09-16 04:01:00,
2013-09-16 14:02:00,85.6,66.6,29.62,North,360,7.2,7.2,53,0.00,,,0.00,VWS V14.01,2013-09-16 04:02:00,
2013-09-16 14:06:00,85.5,66.4,29.62,North,360,7.2,7.2,53,0.00,,,0.00,VWS V14.01,2013-09-16 04:06:00,
2013-09-16 14:07:00,85.5,66.4,29.62,North,360,7.2,7.2,53,0.00,,,0.00,VWS V14.01,2013-09-16 04:07:00,
2013-09-16 14:10:00,85.5,66.4,29.62,North,360,7.2,7.2,53,0.00,,,0.00,VWS V14.01,2013-09-16 04:10:00,
2013-09-16 14:15:00,85.1,66.6,29.62,NNE,22,2.9,7.2,54,0.00,,,0.00,VWS V14.01,2013-09-16 04:15:00,
2013-09-16 14:20:00,85.5,66.4,29.62,NNW,338,5.8,5.8,53,0.00,,,0.00,VWS V14.01,2013-09-16 04:20:00,
2013-09-16 14:25:00,85.1,65.5,29.59,NNE,22,12.5,12.5,52,0.00,,,0.00,VWS V14.01,2013-09-16 04:25:00,
2013-09-16 14:31:00,84.7,65.7,29.59,North,360,2.7,3.8,53,0.00,,,0.00,VWS V14.01,2013-09-16 04:31:00,
2013-09-16 14:36:00,84.9,65.9,29.59,NNE,22,2.7,2.7,53,0.00,,,0.00,VWS V14.01,2013-09-16 04:36:00,
2013-09-16 14:41:00,85.3,66.2,29.59,North,360,2.7,2.7,53,0.00,,,0.00,VWS V14.01,2013-09-16 04:41:00,
2013-09-16 14:46:00,85.1,65.5,29.59,North,360,6.0,6.0,52,0.00,,,0.00,VWS V14.01,2013-09-16 04:46:00,
2013-09-16 14:51:00,84.7,65.7,29.59,North,360,3.4,5.4,53,0.00,,,0.00,VWS V14.01,2013-09-16 04:51:00,
2013-09-16 14:56:00,84.7,65.7,29.59,WNW,292,4.9,4.9,53,0.00,,,0.00,VWS V14.01,2013-09-16 04:56:00,
2013-09-16 15:01:00,84.4,64.8,29.59,NW,315,2.5,2.5,52,0.00,,,0.00,VWS V14.01,2013-09-16 05:01:00,
2013-09-16 15:06:00,84.4,65.4,29.59,NW,315,2.5,2.5,53,0.00,,,0.00,VWS V14.01,2013-09-16 05:06:00,
2013-09-16 15:11:00,84.2,65.2,29.59,NW,315,2.5,2.5,53,0.00,,,0.00,VWS V14.01,2013-09-16 05:11:00,
2013-09-16 15:16:00,84.6,65.6,29.59,NW,315,2.5,2.5,53,0.00,,,0.00,VWS V14.01,2013-09-16 05:16:00,
2013-09-16 15:21:00,84.4,65.4,29.59,NW,315,2.5,2.5,53,0.00,,,0.00,VWS V14.01,2013-09-16 05:21:00,
2013-09-16 15:26:00,84.4,65.4,29.56,ENE,68,3.8,3.8,53,0.00,,,0.00,VWS V14.01,2013-09-16 05:26:00,
2013-09-16 15:31:00,83.8,64.9,29.56,NE,45,3.6,3.6,53,0.00,,,0.00,VWS V14.01,2013-09-16 05:31:00,
2013-09-16 15:36:00,83.8,65.4,29.56,North,360,2.7,2.7,54,0.00,,,0.00,VWS V14.01,2013-09-16 05:36:00,
2013-09-16 15:41:00,83.8,64.9,29.56,NNW,338,3.4,3.4,53,0.00,,,0.00,VWS V14.01,2013-09-16 05:41:00,
2013-09-16 15:46:00,83.7,65.3,29.56,NE,45,3.4,3.4,54,0.00,,,0.00,VWS V14.01,2013-09-16 05:46:00,
2013-09-16 15:51:00,83.8,64.9,29.56,NNW,338,2.5,2.5,53,0.00,,,0.00,VWS V14.01,2013-09-16 05:51:00,
2013-09-16 15:56:00,83.8,64.9,29.56,NNW,338,4.3,4.3,53,0.00,,,0.00,VWS V14.01,2013-09-16 05:56:00,
2013-09-16 16:01:00,83.7,64.7,29.56,North,360,5.4,5.4,53,0.00,,,0.00,VWS V14.01,2013-09-16 06:01:00,
2013-09-16 16:06:00,83.3,64.4,29.56,NNW,338,1.6,3.4,53,0.00,,,0.00,VWS V14.01,2013-09-16 06:06:00,
2013-09-16 16:11:00,83.3,64.9,29.56,NNE,22,2.7,4.9,54,0.00,,,0.00,VWS V14.01,2013-09-16 06:11:00,
2013-09-16 16:16:00,83.3,64.9,29.56,NW,315,1.6,2.5,54,0.00,,,0.00,VWS V14.01,2013-09-16 06:16:00,
2013-09-16 16:21:00,83.1,64.8,29.56,ENE,68,1.3,1.3,54,0.00,,,0.00,VWS V14.01,2013-09-16 06:21:00,
2013-09-16 16:26:00,83.1,65.3,29.56,NE,45,2.7,2.7,55,0.00,,,0.00,VWS V14.01,2013-09-16 06:26:00,
2013-09-16 16:32:00,82.9,65.1,29.56,NNE,22,2.2,2.2,55,0.00,,,0.00,VWS V14.01,2013-09-16 06:32:00,
2013-09-16 16:37:00,82.6,64.8,29.56,NNE,22,3.4,3.4,55,0.00,,,0.00,VWS V14.01,2013-09-16 06:37:00,
2013-09-16 16:42:00,82.6,65.3,29.56,WNW,292,3.4,3.4,56,0.00,,,0.00,VWS V14.01,2013-09-16 06:42:00,
2013-09-16 16:47:00,82.4,65.1,29.56,NW,315,3.4,3.4,56,0.00,,,0.00,VWS V14.01,2013-09-16 06:47:00,
2013-09-16 16:52:00,82.4,65.1,29.56,NNE,22,2.7,3.8,56,0.00,,,0.00,VWS V14.01,2013-09-16 06:52:00,
2013-09-16 16:57:00,81.9,64.6,29.56,NNE,22,2.5,2.5,56,0.00,,,0.00,VWS V14.01,2013-09-16 06:57:00,
2013-09-16 17:02:00,81.9,65.2,29.56,NE,45,2.2,2.2,57,0.00,,,0.00,VWS V14.01,2013-09-16 07:02:00,
2013-09-16 17:07:00,81.7,65.5,29.56,NNE,22,3.4,3.4,58,0.00,,,0.00,VWS V14.01,2013-09-16 07:07:00,
2013-09-16 17:12:00,81.5,65.3,29.59,North,360,6.0,6.0,58,0.00,,,0.00,VWS V14.01,2013-09-16 07:12:00,
2013-09-16 17:17:00,81.1,65.5,29.59,NNW,338,1.1,1.1,59,0.00,,,0.00,VWS V14.01,2013-09-16 07:17:00,
2013-09-16 17:22:00,81.0,65.3,29.59,NNE,22,2.7,2.7,59,0.00,,,0.00,VWS V14.01,2013-09-16 07:22:00,
2013-09-16 17:27:00,80.6,65.0,29.59,NE,45,2.7,2.7,59,0.00,,,0.00,VWS V14.01,2013-09-16 07:27:00,
2013-09-16 17:32:00,80.6,65.0,29.59,East,90,1.6,1.6,59,0.00,,,0.00,VWS V14.01,2013-09-16 07:32:00,
2013-09-16 17:37:00,80.2,65.1,29.59,North,360,2.9,2.9,60,0.00,,,0.00,VWS V14.01,2013-09-16 07:37:00,
2013-09-16 17:42:00,80.1,64.9,29.59,NNE,22,1.1,1.1,60,0.00,,,0.00,VWS V14.01,2013-09-16 07:42:00,
2013-09-16 17:47:00,80.1,64.9,29.59,NNW,338,2.2,2.2,60,0.00,,,0.00,VWS V14.01,2013-09-16 07:47:00,
2013-09-16 17:52:00,79.7,65.1,29.59,WNW,292,1.3,1.3,61,0.00,,,0.00,VWS V14.01,2013-09-16 07:52:00,
2013-09-16 17:57:00,79.7,65.1,29.59,NNE,22,0.9,0.9,61,0.00,,,0.00,VWS V14.01,2013-09-16 07:57:00,
2013-09-16 18:02:00,79.3,65.2,29.59,SW,225,0.0,0.0,62,0.00,,,0.00,VWS V14.01,2013-09-16 08:02:00,
2013-09-16 18:07:00,78.8,64.7,29.59,NNW,338,1.6,1.6,62,0.00,,,0.00,VWS V14.01,2013-09-16 08:07:00,
2013-09-16 18:12:00,78.4,64.8,29.62,WSW,248,1.1,1.1,63,0.00,,,0.00,VWS V14.01,2013-09-16 08:12:00,
2013-09-16 18:17:00,78.1,64.5,29.62,NW,315,0.0,0.0,63,0.00,,,0.00,VWS V14.01,2013-09-16 08:17:00,
2013-09-16 18:23:00,77.9,64.8,29.62,WSW,248,0.0,0.0,64,0.00,,,0.00,VWS V14.01,2013-09-16 08:23:00,
2013-09-16 18:28:00,77.2,64.1,29.62,West,270,0.9,0.9,64,0.00,,,0.00,VWS V14.01,2013-09-16 08:28:00,
2013-09-16 18:33:00,76.8,64.2,29.62,WSW,248,1.3,1.3,65,0.00,,,0.00,VWS V14.01,2013-09-16 08:33:00,
2013-09-16 18:38:00,76.6,64.0,29.62,WNW,292,0.9,0.9,65,0.00,,,0.00,VWS V14.01,2013-09-16 08:38:00,
2013-09-16 18:43:00,76.5,63.8,29.62,WNW,292,0.9,0.9,65,0.00,,,0.00,VWS V14.01,2013-09-16 08:43:00,
2013-09-16 18:48:00,76.6,64.4,29.62,WNW,292,0.9,0.9,66,0.00,,,0.00,VWS V14.01,2013-09-16 08:48:00,
2013-09-16 18:53:00,76.6,64.9,29.62,SSW,202,2.7,2.7,67,0.00,,,0.00,VWS V14.01,2013-09-16 08:53:00,
2013-09-16 18:58:00,76.6,64.9,29.62,South,180,2.5,2.5,67,0.00,,,0.00,VWS V14.01,2013-09-16 08:58:00,
2013-09-16 19:03:00,76.6,64.9,29.62,SSW,202,2.9,2.9,67,0.00,,,0.00,VWS V14.01,2013-09-16 09:03:00,
2013-09-16 19:08:00,76.3,64.5,29.62,SSW,202,2.9,2.9,67,0.00,,,0.00,VWS V14.01,2013-09-16 09:08:00,
2013-09-16 19:13:00,76.3,64.5,29.62,SSW,202,2.5,2.5,67,0.00,,,0.00,VWS V14.01,2013-09-16 09:13:00,
2013-09-16 19:18:00,76.5,64.7,29.62,SSW,202,2.5,2.5,67,0.00,,,0.00,VWS V14.01,2013-09-16 09:18:00,
2013-09-16 19:23:00,76.5,64.7,29.62,SSW,202,2.5,2.5,67,0.00,,,0.00,VWS V14.01,2013-09-16 09:23:00,
2013-09-16 19:28:00,75.7,64.0,29.62,South,180,3.4,3.4,67,0.00,,,0.00,VWS V14.01,2013-09-16 09:28:00,
2013-09-16 19:33:00,75.2,63.9,29.62,South,180,3.4,3.4,68,0.00,,,0.00,VWS V14.01,2013-09-16 09:33:00,
2013-09-16 19:38:00,75.0,63.8,29.62,South,180,3.4,3.4,68,0.00,,,0.00,VWS V14.01,2013-09-16 09:38:00,
2013-09-16 19:43:00,75.0,64.2,29.65,South,180,3.4,3.4,69,0.00,,,0.00,VWS V14.01,2013-09-16 09:43:00,
2013-09-16 19:48:00,75.0,64.2,29.65,SW,225,1.3,3.4,69,0.00,,,0.00,VWS V14.01,2013-09-16 09:48:00,
2013-09-16 19:53:00,74.7,63.8,29.65,SSW,202,2.9,2.9,69,0.00,,,0.00,VWS V14.01,2013-09-16 09:53:00,
2013-09-16 19:58:00,74.3,63.5,29.65,SSW,202,2.9,2.9,69,0.00,,,0.00,VWS V14.01,2013-09-16 09:58:00,
2013-09-16 20:03:00,74.5,63.7,29.65,SSW,202,3.1,3.1,69,0.00,,,0.00,VWS V14.01,2013-09-16 10:03:00,
2013-09-16 20:09:00,74.5,64.1,29.65,SSW,202,1.6,1.6,70,0.00,,,0.00,VWS V14.01,2013-09-16 10:09:00,
2013-09-16 20:14:00,74.3,63.5,29.65,SSW,202,1.6,1.6,69,0.00,,,0.00,VWS V14.01,2013-09-16 10:14:00,
2013-09-16 20:19:00,74.5,64.1,29.65,SSW,202,1.6,1.6,70,0.00,,,0.00,VWS V14.01,2013-09-16 10:19:00,
2013-09-16 20:24:00,74.1,63.7,29.65,SW,225,1.6,1.6,70,0.00,,,0.00,VWS V14.01,2013-09-16 10:24:00,
2013-09-16 20:29:00,74.1,63.7,29.68,SW,225,2.7,2.7,70,0.00,,,0.00,VWS V14.01,2013-09-16 10:29:00,
2013-09-16 20:34:00,73.9,63.5,29.68,SW,225,3.1,3.1,70,0.00,,,0.00,VWS V14.01,2013-09-16 10:34:00,
2013-09-16 20:39:00,73.9,63.5,29.68,SSW,202,2.9,2.9,70,0.00,,,0.00,VWS V14.01,2013-09-16 10:39:00,
2013-09-16 20:44:00,73.8,63.4,29.68,South,180,2.9,2.9,70,0.00,,,0.00,VWS V14.01,2013-09-16 10:44:00,
2013-09-16 20:49:00,73.6,63.6,29.68,SW,225,2.5,2.5,71,0.00,,,0.00,VWS V14.01,2013-09-16 10:49:00,